Wind_Speed
79 80 74 67 64 59 54 53 52 53 58 62 61 60 59 60 61 59 58 56 54 52 50 47 46 46 46 49 50 51 50 52 51 52 50 48 42 43 46 47 51 52 50 50 53 61 63 67 70 74 75 74 79 84
86 82 77 71 67 64 59 56 55 53 53 57 60 62 62 61 60 62 62 59 58 57 55 52 50 50 49 50 52 53 53 52 52 54 51 48 46 47 48 49 53 54 56 58 61 68 72 73 75 76 78 81 85 92
88 84 82 75 70 67 63 58 57 56 55 56 57 61 61 60 61 61 63 64 64 62 59 56 54 54 55 54 54 53 55 54 58 56 52 50 52 51 48 51 54 61 65 63 67 75 76 78 79 81 85 91 95 100
89 87 85 78 75 71 66 63 60 58 58 57 57 58 60 62 63 63 65 64 64 64 62 60 59 58 57 56 56 57 59 60 59 55 51 55 56 53 52 56 60 68 70 72 73 77 77 83 85 92 95 99 102 105
89 87 86 86 80 76 70 65 62 61 60 59 57 57 58 59 62 66 67 66 67 68 66 66 62 61 59 60 61 60 59 60 63 59 56 58 60 60 60 62 67 72 77 79 79 83 84 88 92 98 102 106 110 114
94 89 87 88 87 83 77 74 69 64 62 59 57 56 57 60 60 62 61 62 66 66 63 65 62 62 61 62 59 59 62 64 65 61 60 60 64 67 66 70 74 81 83 85 85 86 91 98 100 106 110 114 114 119
98 93 90 89 90 88 84 81 76 73 69 64 60 59 59 58 57 58 58 61 61 61 58 55 53 59 60 63 62 63 63 62 62 62 61 67 72 76 75 76 82 85 86 89 92 96 101 106 111 115 117 118 121 125
95 98 94 93 91 91 87 85 82 78 74 72 69 68 64 62 61 60 60 62 64 64 61 54 51 55 62 66 68 66 66 67 65 66 69 73 73 77 79 83 86 88 91 97 100 103 107 113 118 121 122 124 126 126
92 99 98 95 92 93 89 88 84 82 79 77 77 75 73 68 64 64 68 68 68 68 63 57 56 59 60 68 70 71 72 73 73 75 75 77 80 83 85 87 91 97 102 103 107 112 115 118 122 126 125 125 124 126
91 97 100 94 95 93 93 90 88 86 84 82 83 83 80 76 75 72 75 74 72 71 67 67 68 70 73 75 76 79 80 82 82 82 85 87 87 90 95 99 101 105 109 111 112 116 120 123 125 127 127 125 123 119
92 94 96 97 96 99 97 95 94 92 90 92 90 87 85 85 85 83 83 83 82 80 76 75 78 80 82 83 84 83 83 85 85 86 90 91 91 99 101 105 109 109 113 117 121 120 120 121 121 121 120 119 117 113
91 94 93 97 101 99 96 95 95 95 95 93 91 92 92 92 93 92 92 89 86 86 84 86 88 90 90 91 93 93 94 96 96 96 99 100 104 108 109 110 115 118 118 119 121 118 119 119 119 118 116 114 108 108
83 88 95 98 99 101 102 101 100 99 97 97 98 97 97 96 98 96 94 94 93 93 93 93 95 96 97 98 100 101 103 104 106 107 109 111 113 112 114 117 119 118 120 118 121 119 116 116 113 114 113 110 106 106
89 83 87 89 96 99 97 98 101 103 103 104 103 104 101 99 98 97 98 98 98 97 98 99 101 102 101 105 106 108 108 109 112 111 113 115 113 111 109 114 118 115 116 116 115 114 114 110 109 109 109 107 104 105
88 86 87 90 93 98 99 99 100 99 102 106 102 103 100 100 99 100 103 103 104 104 105 105 104 104 105 106 108 110 113 115 116 116 113 112 113 115 118 114 113 117 114 114 114 113 111 109 107 103 104 103 104 100
82 85 89 89 92 97 96 98 98 100 101 101 100 96 97 102 104 104 106 105 104 101 102 103 105 105 108 107 104 105 108 110 110 108 109 111 115 117 113 116 117 112 111 113 112 110 107 104 101 99 99 100 97 92
78 85 92 91 95 91 91 93 97 100 102 107 104 105 104 105 110 105 100 105 106 104 106 107 106 106 102 104 110 112 110 108 110 109 113 118 116 116 114 110 110 110 110 111 106 103 101 99 98 96 93 91 88 83
79 84 89 95 97 95 95 96 98 99 99 100 104 105 104 103 106 108 109 109 110 108 104 105 110 114 117 113 109 110 108 105 104 107 108 109 109 108 108 106 106 108 106 102 99 98 97 95 94 90 84 80 79 75
72 78 85 91 91 92 97 99 100 98 96 99 101 103 105 110 113 111 112 112 114 113 108 109 111 113 112 107 104 106 104 102 101 101 101 104 105 105 106 106 102 96 94 95 94 92 90 90 86 78 76 71 70 68
65 70 74 78 82 87 91 92 93 94 102 105 98 99 105 107 103 100 102 104 105 102 104 109 108 100 98 101 101 99 97 96 96 97 102 106 107 106 100 91 90 90 90 89 88 86 84 80 76 72 69 66 65 63
60 63 66 69 73 75 76 79 82 85 88 91 96 98 91 89 91 94 97 98 98 101 98 95 96 97 96 94 95 95 97 96 98 99 99 96 93 91 90 89 87 86 82 82 83 83 78 72 69 67 66 62 60 57
56 57 59 60 63 66 69 71 74 78 81 83 86 86 87 89 90 91 92 95 99 97 90 91 90 91 94 96 94 93 91 90 91 89 87 85 84 85 85 83 80 80 80 80 77 72 70 67 65 62 60 59 58 56
46 47 49 51 54 57 61 66 68 69 69 72 73 76 80 82 84 84 85 89 87 84 86 86 87 88 88 89 88 86 84 84 84 83 82 81 79 78 77 76 74 72 73 73 67 66 65 62 60 60 58 56 54 52
39 41 45 49 53 56 59 60 61 62 65 68 70 72 73 74 73 73 76 81 82 80 79 78 78 79 80 79 77 77 77 77 76 76 76 74 71 71 71 70 68 66 63 63 62 62 60 59 58 57 55 53 51 49
42 45 48 52 55 56 57 58 59 61 63 63 62 60 61 59 61 63 67 73 70 68 68 67 69 69 67 66 68 70 72 71 68 68 73 65 63 64 66 63 62 60 58 58 59 59 58 57 55 53 51 51 51 49
42 45 47 49 49 51 51 50 49 49 49 50 51 51 51 52 54 56 60 60 60 62 62 62 61 58 56 58 60 64 65 63 61 61 62 61 58 56 58 59 58 56 54 54 56 56 55 53 52 51 50 50 48 49
40 41 41 40 39 39 38 39 41 42 42 43 45 46 45 46 49 51 51 52 53 53 54 54 53 52 53 56 58 57 55 55 55 54 55 55 55 55 54 54 54 54 53 51 51 50 50 49 49 49 48 47 47 47
34 33 32 32 33 35 37 39 40 40 39 40 43 44 43 44 45 45 47 48 48 49 50 50 49 49 51 52 51 51 51 49 47 48 49 50 51 51 51 50 49 48 48 47 47 47 46 47 47 47 46 46 46 46
27 29 33 34 36 36 35 34 36 38 40 40 40 41 41 40 41 44 45 45 44 44 45 46 47 45 46 47 47 47 46 44 44 46 47 48 48 48 47 46 46 46 46 46 46 46 46 46 45 45 45 46 47 47
26 27 28 30 31 32 32 35 36 35 36 36 36 39 37 36 41 41 42 41 41 42 42 43 44 44 44 43 41 43 44 43 43 44 45 46 45 44 44 44 44 44 45 46 45 44 45 45 45 46 46 46 44 44
19 22 25 27 27 26 29 31 33 33 32 33 33 36 36 35 37 38 38 39 40 42 42 44 45 46 46 45 43 42 42 41 42 43 44 45 45 45 44 44 43 43 43 44 44 45 45 44 44 43 43 43 42 41
21 22 24 25 23 24 28 31 31 30 29 30 31 32 33 34 36 38 38 38 38 39 40 40 41 42 43 43 42 41 41 41 42 43 44 44 44 44 43 43 44 44 44 44 44 44 43 42 42 42 41 40 40 39
20 21 21 21 22 23 27 29 28 29 29 30 31 32 33 34 35 36 37 37 36 36 36 37 38 39 40 41 41 41 40 40 40 40 41 42 42 42 43 43 43 43 43 42 41 41 41 41 40 39 38 38 37 36
Wind_Direction
206 206 208 208 209 206 212 213 214 213 216 218 219 220 221 225 226 229 232 236 239 243 247 250 253 255 258 261 264 269 273 276 281 284 287 292 289 288 287 292 292 291 292 293 297 300 300 303 303 304 306 306 308 308
209 209 210 210 213 213 212 212 215 217 218 219 221 222 224 226 227 230 232 237 241 244 247 251 253 258 261 265 268 271 273 278 280 285 289 291 291 286 289 289 290 290 293 298 301 300 303 305 305 306 307 308 307 308
210 209 212 212 212 214 216 215 216 218 221 222 224 226 227 230 230 232 233 237 240 244 248 252 256 259 264 267 269 273 276 279 288 288 289 288 287 287 288 287 289 290 293 297 301 300 303 304 305 305 306 308 310 310
212 212 212 214 215 216 217 221 217 221 222 225 227 229 231 233 234 235 237 241 244 247 250 254 257 261 265 268 270 274 278 285 283 283 285 289 286 285 289 290 290 291 294 298 299 299 302 303 306 309 310 309 308 309
213 215 217 215 217 218 216 221 224 222 222 225 230 233 234 237 239 240 242 245 248 250 253 256 259 263 266 268 273 277 279 277 277 282 287 285 286 289 293 292 290 290 293 296 298 300 302 305 306 307 309 310 310 311
216 217 218 219 219 220 218 220 222 226 229 230 231 234 239 242 244 246 247 250 251 253 255 258 260 265 268 271 272 271 274 279 281 285 286 284 287 289 292 292 291 294 298 301 303 304 305 307 308 309 308 311 311 311
216 218 218 220 220 220 222 223 224 225 228 230 234 238 242 243 247 252 253 253 256 258 257 258 262 267 268 268 270 275 277 281 285 285 283 283 286 292 296 296 295 297 299 300 302 304 306 309 310 310 309 309 310 309
216 219 217 219 221 222 223 225 226 228 229 232 234 237 239 243 245 247 250 251 252 253 252 256 260 265 270 276 275 276 277 278 279 283 285 286 290 293 295 293 294 296 299 303 305 307 307 308 308 309 309 309 309 308
216 218 221 220 221 221 224 227 229 230 232 234 236 237 239 240 243 247 249 250 252 254 257 258 259 261 266 267 272 275 278 282 284 285 287 288 290 291 291 292 295 298 302 303 304 305 305 305 307 308 308 307 308 310
220 218 220 221 222 225 227 229 231 232 234 235 238 240 241 243 244 246 248 249 251 254 256 258 260 263 264 266 270 274 277 279 282 286 287 290 292 291 291 293 296 298 301 304 304 303 304 306 306 307 307 308 309 309
219 219 220 223 225 226 227 230 233 234 236 237 240 243 246 247 248 247 248 250 253 256 258 260 262 264 267 270 272 274 277 279 282 284 285 286 288 288 291 293 296 300 299 298 299 301 304 304 304 307 308 309 310 311
222 222 223 222 224 227 230 232 233 237 240 242 243 245 246 247 248 249 251 254 258 260 261 262 264 267 269 271 274 275 277 279 282 284 286 287 286 287 290 293 296 297 297 297 301 302 305 306 308 310 310 310 311 311
222 222 222 222 224 228 231 234 236 239 241 243 244 245 248 250 252 253 255 257 259 261 263 265 267 270 272 274 276 278 279 281 282 284 286 288 289 291 292 293 295 294 296 301 303 303 305 306 308 310 310 310 310 309
226 227 227 228 229 231 233 233 237 239 241 243 247 250 252 254 256 256 257 259 262 262 263 265 267 269 270 272 275 277 280 282 283 285 287 290 290 291 292 293 291 298 301 301 303 303 304 306 308 308 308 308 308 308
229 229 229 231 232 234 235 235 238 239 240 242 245 250 253 256 259 259 261 262 264 265 267 268 270 273 275 277 279 281 281 281 283 285 288 291 292 292 292 294 300 300 299 300 301 303 304 306 307 307 306 307 307 308
230 232 235 235 236 237 238 240 242 243 243 246 248 248 251 252 256 258 262 264 264 269 271 271 271 273 275 277 279 283 284 284 285 290 291 293 293 292 295 296 297 297 298 299 301 302 304 305 305 305 306 306 307 311
230 231 234 237 237 239 241 241 242 246 247 249 251 251 253 253 255 258 261 262 262 266 268 270 273 275 278 279 281 283 284 287 289 293 294 291 294 295 293 295 295 296 298 300 300 302 303 303 304 305 306 308 310 308
229 231 232 236 238 240 243 244 247 247 248 250 250 254 257 257 259 261 264 265 266 271 273 275 277 280 281 281 282 283 287 289 290 288 291 292 290 290 291 293 295 298 299 300 301 301 302 304 305 306 309 308 307 309
224 228 231 234 236 238 242 245 247 249 251 251 254 258 260 261 260 262 265 267 269 273 276 278 280 279 279 280 284 286 286 285 287 288 288 289 289 290 292 294 296 297 299 299 299 302 304 304 304 308 305 307 307 308
223 227 230 232 234 236 240 244 245 246 249 253 256 257 258 259 260 264 266 268 270 272 274 275 275 276 279 282 283 283 283 284 286 288 290 290 291 292 292 294 296 297 297 300 303 304 302 305 306 306 307 307 307 307
225 228 231 233 235 237 239 240 243 245 247 249 251 255 257 259 262 264 266 268 270 270 271 273 276 278 280 280 281 283 285 286 286 286 285 288 292 293 294 295 296 298 302 305 302 301 304 305 304 307 306 306 307 308
224 228 231 234 236 239 241 243 244 246 247 249 251 254 256 259 260 262 264 266 267 268 271 273 274 276 279 280 280 281 284 286 288 290 290 290 290 290 292 294 299 303 302 298 299 302 302 303 305 305 305 306 308 309
225 228 232 236 237 239 241 243 245 247 249 251 253 254 256 257 259 261 263 266 268 272 273 275 276 277 277 279 282 285 286 286 286 287 287 288 289 291 294 298 298 296 295 297 301 300 302 304 304 305 306 307 307 308
225 226 226 230 233 236 238 242 244 246 248 250 251 252 254 256 259 263 265 268 269 271 273 274 276 277 279 280 282 282 281 282 284 286 287 287 291 295 295 292 293 294 296 299 300 301 303 304 305 306 307 308 308 309
219 223 224 227 230 234 238 240 242 245 247 251 256 261 263 267 268 269 269 269 271 271 271 273 273 273 275 277 278 279 280 281 282 284 286 292 291 288 290 292 293 297 300 300 301 302 303 304 305 307 309 310 310 311
226 228 232 235 237 240 244 248 253 257 261 263 264 266 267 267 266 264 263 265 268 270 272 274 277 279 278 275 275 275 279 283 286 285 286 287 290 291 290 292 296 299 299 300 299 300 302 303 305 307 309 309 310 312
232 235 238 243 248 253 256 258 259 260 262 262 261 261 262 265 266 266 268 270 273 275 276 276 277 278 277 276 277 281 283 283 284 287 289 291 291 291 293 295 296 297 298 299 299 301 302 304 306 308 309 310 311 312
239 245 250 254 256 257 256 256 256 260 264 267 267 267 267 270 273 275 276 275 274 275 278 280 281 282 282 283 285 287 287 290 292 291 289 289 291 293 294 295 296 298 300 302 303 304 305 306 307 308 308 309 310 310
246 245 246 248 251 254 261 266 266 263 263 267 270 272 273 274 275 274 275 277 279 281 281 282 283 284 286 286 288 290 293 295 294 293 294 295 294 296 297 298 299 301 303 304 305 306 306 306 307 307 308 310 310 311
245 249 251 253 255 256 257 258 263 265 266 268 272 273 275 277 276 277 279 281 282 283 285 286 288 290 290 292 294 294 295 296 296 296 296 297 297 297 297 300 302 302 303 304 305 305 305 306 308 309 309 310 311 312
252 251 253 254 258 263 265 265 266 270 273 273 273 276 279 280 280 282 284 284 286 286 287 288 289 290 292 294 295 293 292 292 294 295 296 296 298 299 301 301 302 302 303 303 304 305 306 307 307 307 308 308 308 308
263 264 264 267 270 267 265 268 272 275 276 278 279 280 281 281 280 280 281 281 282 283 285 286 287 289 291 292 294 294 294 295 295 295 297 297 299 300 301 301 302 303 304 304 304 304 304 305 306 306 306 306 307 309
259 262 265 266 266 267 269 272 275 276 276 277 277 277 277 278 279 280 283 284 284 284 284 286 288 291 291 293 294 294 295 295 295 296 296 297 298 299 299 300 300 300 301 301 302 303 303 305 305 306 307 309 311 312
Height
10401 10413 10426 10437 10447 10456 10464 10472 10481 10490 10498 10506 10513 10520 10526 10533 10539 10545 10551 10556 10560 10564 10567 10570 10572 10575 10577 10578 10579 10579 10579 10578 10579 10577 10578 10576 10575 10571 10567 10563 10558 10554 10555 10554 10552 10542 10538 10533 10527 10519 10514 10507 10498 10488
10393 10404 10416 10428 10439 10449 10457 10464 10473 10481 10489 10497 10504 10510 10517 10524 10529 10535 10541 10546 10550 10554 10557 10560 10563 10565 10567 10568 10569 10568 10567 10567 10567 10565 10565 10565 10563 10559 10556 10553 10545 10540 10539 10540 10537 10525 10519 10515 10507 10500 10493 10487 10477 10465
10383 10394 10406 10419 10430 10439 10449 10456 10464 10472 10480 10488 10495 10502 10508 10514 10520 10525 10530 10534 10538 10542 10545 10550 10553 10554 10556 10557 10557 10556 10555 10555 10554 10553 10553 10551 10548 10547 10544 10542 10537 10525 10522 10525 10522 10505 10503 10495 10486 10480 10472 10464 10453 10440
10373 10384 10397 10410 10420 10431 10440 10449 10455 10463 10471 10479 10486 10492 10499 10505 10510 10515 10520 10524 10528 10531 10535 10538 10540 10542 10544 10545 10545 10544 10542 10541 10540 10540 10540 10537 10534 10535 10535 10530 10524 10510 10508 10508 10502 10492 10489 10475 10470 10458 10449 10438 10427 10415
10361 10375 10388 10399 10410 10420 10430 10439 10448 10455 10461 10469 10476 10482 10488 10493 10498 10504 10509 10513 10517 10519 10524 10525 10528 10532 10532 10531 10531 10530 10528 10526 10525 10527 10528 10523 10517 10518 10520 10517 10508 10496 10490 10489 10488 10478 10471 10465 10454 10441 10429 10415 10404 10391
10350 10363 10376 10387 10398 10409 10419 10427 10435 10444 10452 10459 10466 10472 10477 10481 10487 10492 10497 10501 10503 10505 10512 10512 10516 10517 10517 10517 10515 10513 10512 10512 10512 10513 10513 10510 10504 10501 10505 10501 10490 10478 10475 10467 10463 10456 10449 10439 10431 10420 10407 10394 10383 10369
10337 10349 10363 10374 10386 10397 10406 10415 10424 10432 10441 10449 10455 10460 10465 10469 10476 10481 10487 10487 10488 10492 10496 10500 10506 10504 10500 10500 10499 10498 10497 10497 10498 10498 10498 10493 10490 10485 10485 10479 10467 10463 10458 10450 10442 10436 10426 10415 10403 10392 10380 10370 10357 10339
10322 10335 10349 10362 10373 10384 10394 10403 10412 10421 10429 10436 10441 10445 10449 10457 10463 10469 10471 10470 10470 10474 10479 10492 10496 10493 10487 10482 10478 10478 10480 10480 10487 10484 10482 10477 10476 10469 10466 10455 10446 10442 10436 10431 10423 10412 10400 10387 10374 10364 10354 10341 10329 10311
10307 10321 10335 10350 10361 10371 10380 10391 10400 10409 10416 10421 10425 10429 10435 10443 10450 10453 10451 10453 10454 10457 10468 10479 10482 10480 10477 10467 10464 10462 10460 10462 10465 10464 10462 10459 10456 10449 10440 10433 10428 10418 10412 10406 10399 10389 10377 10364 10353 10339 10324 10308 10297 10284
10292 10306 10321 10336 10349 10358 10368 10377 10387 10395 10400 10405 10408 10412 10421 10431 10435 10436 10433 10434 10439 10445 10454 10461 10463 10462 10456 10453 10452 10450 10451 10449 10450 10451 10441 10440 10437 10424 10417 10414 10409 10402 10391 10381 10370 10358 10349 10338 10325 10311 10294 10280 10268 10256
10275 10290 10306 10320 10333 10345 10353 10363 10372 10379 10382 10384 10393 10401 10408 10413 10417 10416 10415 10419 10424 10432 10442 10445 10443 10440 10436 10434 10434 10436 10435 10433 10437 10436 10427 10429 10425 10406 10401 10394 10386 10378 10369 10357 10346 10337 10327 10312 10301 10289 10274 10258 10245 10229
10259 10275 10289 10304 10317 10329 10338 10348 10356 10361 10367 10374 10383 10383 10383 10388 10391 10396 10401 10408 10415 10419 10424 10421 10419 10419 10419 10418 10415 10415 10415 10414 10415 10414 10410 10408 10397 10389 10382 10374 10364 10354 10343 10331 10323 10310 10295 10282 10268 10257 10245 10233 10220 10205
10241 10256 10272 10286 10299 10311 10323 10332 10340 10344 10352 10355 10358 10361 10364 10369 10374 10382 10390 10394 10394 10397 10399 10401 10400 10399 10399 10398 10395 10392 10389 10391 10389 10389 10384 10376 10370 10365 10357 10347 10338 10325 10317 10310 10293 10280 10267 10255 10240 10227 10217 10205 10194 10180
10225 10239 10253 10266 10280 10293 10305 10314 10321 10328 10334 10337 10341 10341 10347 10352 10360 10368 10370 10371 10374 10376 10376 10378 10378 10379 10379 10375 10374 10370 10366 10364 10362 10362 10356 10352 10346 10338 10329 10318 10305 10302 10291 10276 10263 10252 10240 10228 10219 10205 10191 10179 10168 10154
10208 10221 10233 10245 10257 10270 10283 10292 10302 10310 10315 10320 10325 10326 10333 10336 10338 10341 10344 10348 10350 10354 10355 10354 10355 10356 10354 10351 10351 10347 10341 10336 10334 10331 10329 10325 10315 10306 10292 10287 10285 10273 10261 10250 10237 10226 10215 10203 10194 10185 10170 10157 10141 10129
10192 10203 10214 10225 10238 10249 10260 10273 10282 10289 10294 10299 10307 10313 10312 10316 10317 10320 10323 10327 10329 10331 10331 10331 10332 10332 10328 10327 10325 10319 10311 10306 10307 10307 10302 10295 10283 10270 10269 10265 10254 10244 10233 10223 10211 10201 10191 10179 10169 10161 10151 10134 10119 10109
10177 10187 10195 10204 10216 10226 10237 10248 10257 10265 10273 10282 10284 10287 10289 10291 10297 10301 10303 10307 10309 10309 10309 10310 10311 10304 10304 10302 10295 10288 10286 10288 10286 10282 10272 10257 10253 10247 10239 10235 10226 10216 10206 10194 10185 10175 10163 10153 10144 10136 10127 10112 10098 10088
10161 10166 10179 10188 10196 10205 10214 10223 10231 10239 10251 10257 10259 10263 10267 10271 10274 10277 10279 10282 10283 10283 10284 10284 10283 10281 10275 10266 10262 10265 10267 10266 10261 10250 10244 10236 10227 10219 10212 10206 10199 10190 10181 10170 10159 10149 10140 10131 10120 10113 10105 10094 10079 10070
10143 10150 10161 10168 10177 10186 10195 10202 10213 10218 10225 10233 10237 10239 10244 10250 10253 10254 10255 10258 10259 10259 10260 10259 10255 10251 10243 10242 10244 10243 10238 10234 10233 10228 10219 10208 10200 10194 10189 10180 10173 10164 10154 10144 10135 10127 10120 10108 10099 10095 10084 10076 10065 10056
10129 10136 10143 10150 10158 10167 10177 10187 10192 10200 10206 10208 10211 10219 10225 10228 10229 10231 10232 10234 10235 10236 10237 10232 10227 10227 10227 10223 10218 10216 10213 10209 10206 10203 10195 10182 10172 10168 10160 10154 10146 10138 10129 10121 10112 10104 10097 10090 10079 10072 10064 10058 10049 10041
10116 10122 10130 10138 10145 10154 10163 10170 10175 10181 10185 10189 10192 10196 10199 10203 10207 10208 10209 10208 10211 10210 10210 10209 10208 10202 10199 10197 10193 10190 10186 10184 10179 10175 10171 10167 10154 10141 10133 10126 10120 10112 10108 10101 10092 10082 10075 10070 10062 10055 10046 10040 10034 10027
10106 10113 10119 10126 10133 10139 10146 10150 10155 10159 10164 10169 10173 10178 10182 10183 10184 10185 10185 10187 10186 10184 10190 10187 10183 10180 10178 10173 10170 10166 10163 10160 10153 10145 10141 10138 10133 10123 10113 10106 10101 10095 10087 10078 10074 10068 10058 10051 10045 10038 10032 10026 10019 10013
10097 10105 10111 10117 10121 10126 10128 10130 10134 10140 10147 10150 10154 10157 10157 10157 10159 10160 10164 10163 10161 10163 10161 10160 10157 10155 10154 10149 10147 10144 10140 10135 10127 10122 10116 10112 10107 10101 10094 10087 10083 10078 10070 10060 10057 10049 10041 10036 10029 10024 10018 10012 10006 9999
10089 10094 10099 10103 10106 10109 10111 10116 10121 10125 10127 10128 10129 10131 10134 10136 10141 10145 10146 10140 10135 10138 10139 10138 10137 10133 10131 10130 10128 10122 10114 10109 10105 10100 10093 10089 10086 10080 10074 10067 10063 10058 10053 10045 10037 10031 10026 10020 10014 10009 10004 9998 9993 9986
10077 10080 10084 10087 10090 10094 10098 10101 10104 10106 10107 10109 10114 10118 10121 10127 10128 10128 10125 10114 10114 10115 10114 10117 10116 10114 10114 10111 10104 10098 10092 10089 10087 10081 10068 10073 10071 10064 10054 10049 10043 10040 10035 10028 10021 10015 10011 10006 10000 9995 9990 9984 9977 9971
10065 10069 10071 10074 10079 10083 10086 10090 10093 10096 10099 10102 10103 10105 10107 10108 10105 10103 10097 10096 10098 10098 10098 10096 10095 10095 10093 10087 10082 10075 10072 10072 10069 10063 10055 10052 10049 10046 10038 10031 10026 10023 10019 10015 10008 10003 9998 9992 9987 9981 9976 9971 9965 9958
10055 10058 10063 10068 10072 10076 10079 10081 10082 10083 10085 10086 10085 10085 10085 10087 10085 10084 10086 10085 10083 10082 10078 10076 10074 10073 10070 10065 10062 10060 10058 10053 10049 10046 10040 10035 10030 10025 10022 10017 10012 10008 10004 10001 9997 9991 9985 9979 9974 9968 9963 9958 9953 9946
10050 10054 10059 10062 10063 10064 10064 10065 10066 10068 10070 10071 10069 10068 10070 10070 10070 10070 10068 10066 10064 10062 10061 10059 10058 10056 10051 10048 10045 10042 10038 10036 10034 10029 10024 10020 10015 10010 10007 10003 9998 9994 9990 9986 9981 9977 9971 9966 9961 9956 9951 9945 9940 9935
10046 10048 10048 10049 10050 10051 10054 10057 10057 10056 10055 10055 10056 10056 10057 10058 10058 10053 10051 10050 10049 10048 10045 10042 10040 10039 10035 10031 10028 10024 10022 10020 10017 10012 10009 10005 10001 9997 9992 9988 9984 9980 9975 9971 9967 9961 9957 9953 9948 9943 9938 9932 9927 9922
10036 10038 10040 10042 10043 10044 10046 10044 10044 10045 10045 10045 10045 10042 10043 10045 10040 10038 10037 10036 10034 10032 10030 10027 10024 10020 10018 10017 10016 10012 10007 10003 9999 9996 9992 9989 9986 9983 9979 9975 9970 9965 9961 9957 9953 9949 9944 9940 9935 9930 9925 9920 9915 9910
10030 10030 10030 10031 10032 10034 10033 10032 10032 10032 10034 10033 10033 10030 10029 10029 10027 10024 10024 10022 10020 10018 10015 10013 10010 10007 10004 10002 10000 9997 9993 9989 9985 9982 9978 9975 9971 9968 9964 9960 9956 9953 9949 9945 9940 9936 9932 9928 9923 9918 9914 9909 9904 9900
10021 10022 10022 10022 10024 10025 10024 10022 10021 10022 10022 10021 10020 10019 10018 10016 10014 10012 10011 10008 10007 10005 10002 9999 9997 9994 9991 9987 9985 9982 9979 9976 9972 9969 9965 9961 9958 9954 9950 9947 9943 9939 9936 9932 9928 9924 9920 9916 9912 9907 9903 9898 9894 9889
10014 10014 10015 10015 10016 10015 10014 10012 10012 10011 10010 10009 10008 10008 10006 10004 10002 10000 9997 9995 9993 9991 9988 9985 9983 9980 9977 9973 9970 9967 9965 9962 9958 9956 9952 9949 9946 9942 9938 9935 9931 9928 9924 9921 9917 9913 9909 9905 9901 9896 9892 9887 9883 9878